Location: Köln
(50.9375°N, 6.9603°E)
Time: 20:16:39
(UTC+02:00)

ISS - Visible Passes

Search period start: 15 May 2021 00:00
Search period end: 25 May 2021 00:00
Orbit: 417 x 422 km, 51.6° (Epoch: 15 May)

Date Brightness Start Highest point End Pass type
(mag) Time Alt. Az. Time Alt. Az. Time Alt. Az.
15 May -3.9 00:27:03 10° WSW 00:30:25 77° SSE 00:33:48 10° ENE visible
15 May -3.7 02:03:55 10° W 02:07:18 78° N 02:10:41 10° E visible
15 May -3.7 03:40:46 10° W 03:44:04 51° SSW 03:47:22 10° SE visible
15 May -2.1 22:04:28 10° S 22:06:40 16° SE 22:08:53 10° E visible
15 May -3.8 23:39:40 10° WSW 23:43:00 61° SSE 23:46:21 10° ENE visible
16 May -3.7 01:16:26 10° W 01:19:49 77° N 01:23:12 10° E visible
16 May -3.9 02:53:18 10° WNW 02:56:40 68° SSW 03:00:01 10° ESE visible
16 May -2.3 04:30:35 10° W 04:33:04 19° SW 04:35:33 10° S visible
16 May -3.5 22:52:23 10° SW 22:55:36 45° SSE 22:58:51 10° E visible
17 May -3.7 00:28:57 10° W 00:32:20 80° N 00:35:44 10° E visible
17 May -3.9 02:05:50 10° WNW 02:09:13 83° SSW 02:12:36 10° ESE visible
17 May -2.8 03:42:51 10° W 03:45:46 27° SSW 03:48:40 10° SSE visible
17 May -3.0 22:05:11 10° SW 22:08:14 33° SSE 22:11:19 10° E visible
17 May -3.8 23:41:29 10° WSW 23:44:52 89° N 23:48:15 10° E visible
18 May -3.8 01:18:22 10° W 01:21:45 85° N 01:22:53 39° E visible
18 May -1.4 02:55:16 10° W 02:55:46 13° W 02:55:46 13° W visible
18 May -3.9 22:54:02 10° WSW 22:57:24 78° SSE 23:00:47 10° ENE visible
19 May -3.7 00:30:53 10° W 00:34:16 78° N 00:36:27 20° E visible
19 May -2.2 02:07:45 10° W 02:09:22 25° W 02:09:22 25° W visible
19 May -3.7 22:06:38 10° WSW 22:09:58 61° SSE 22:13:18 10° ENE visible
19 May -3.6 23:43:24 10° W 23:46:46 77° N 23:50:09 10° E visible
20 May -3.6 01:20:15 10° WNW 01:23:11 58° WSW 01:23:11 58° WSW visible
20 May -3.7 22:55:54 10° W 22:59:17 80° N 23:02:40 10° E visible
21 May -3.9 00:32:47 10° WNW 00:36:09 83° SSW 00:37:05 45° ESE visible
21 May -1.2 02:09:47 10° W 02:10:01 11° W 02:10:01 11° W visible
21 May -3.7 22:08:24 10° W 22:11:47 89° NNW 22:15:10 10° E visible
21 May -3.8 23:45:17 10° W 23:48:40 85° N 23:51:01 18° E visible
22 May -2.2 01:22:11 10° W 01:23:57 25° WSW 01:23:57 25° WSW visible
22 May -3.6 22:57:48 10° W 23:01:10 78° N 23:04:33 10° E visible
23 May -3.6 00:34:38 10° W 00:37:56 51° SSW 00:37:56 51° SSW visible
23 May -3.6 22:10:17 10° W 22:13:40 77° N 22:17:03 10° E visible
23 May -3.8 23:47:08 10° WNW 23:50:30 67° SSW 23:51:56 31° SE visible
24 May -1.3 01:24:25 10° W 01:24:52 12° W 01:24:52 12° W visible
24 May -3.8 22:59:38 10° WNW 23:03:02 83° SSW 23:05:58 13° ESE visible
